Tracking 28514 objects as of 23-Feb-2024
HD Live streaming from Space Station
objects crossing your sky now

PICOSAT 6

Track PICOSAT 6 now!
10-day predictions
PICOSAT 6 is classified as:


NORAD ID: 26094
Int'l Code: 2000-004M
Perigee: 726.9 km
Apogee: 774.8 km
Inclination: 100.2 °
Period: 99.7 minutes
Semi major axis: 7121 km
RCS: 0.0137 m2 (small)
Launch date: January 27, 2000
Source: United States (US)
Launch site: AIR FORCE WESTERN TEST RANGE (AFWTR)
Your satellite tracking list
Your tracking list is empty




NASA's NSSDC Master Catalog

Two Line Element Set (TLE):
1 26094U 00004M   24054.51749650  .00001062  00000-0  32297-3 0  9992
2 26094 100.2192 250.7541 0033668  84.0443 276.4578 14.44490857263153
Source of the keplerian elements: AFSPC